QPF
0.00 0.00 0.00 0.00 0.00 0.00 0.00 0.00 0.00 0.00 0.00 0.00 0.00 0.00 0.00 0.00 0.00 0.00 0.00 0.00 0.00 0.00 0.00 0.00 0.02 0.04 0.09 0.04 0.00 0.00 0.00 0.00 0.00 0.00 0.00 0.00 0.00 0.00 0.00 0.05 0.15 0.00 0.00 0.00 0.00 0.00 0.00 0.00 0.00
0.00 0.00 0.00 0.00 0.00 0.00 0.00 0.00 0.00 0.00 0.00 0.00 0.00 0.00 0.00 0.00 0.00 0.00 0.00 0.00 0.00 0.00 0.00 0.00 0.03 0.04 0.04 0.05 0.01 0.00 0.00 0.00 0.00 0.00 0.00 0.00 0.01 0.00 0.00 0.04 0.14 0.00 0.00 0.00 0.00 0.00 0.00 0.00 0.00
0.00 0.00 0.00 0.00 0.00 0.00 0.00 0.00 0.00 0.00 0.00 0.00 0.00 0.00 0.00 0.00 0.00 0.00 0.00 0.00 0.00 0.00 0.00 0.00 0.04 0.06 0.05 0.03 0.01 0.00 0.01 0.00 0.00 0.00 0.00 0.00 0.02 0.00 0.00 0.04 0.11 0.00 0.00 0.00 0.00 0.00 0.00 0.00 0.00
0.00 0.00 0.00 0.00 0.00 0.00 0.00 0.00 0.00 0.00 0.00 0.00 0.00 0.00 0.00 0.00 0.00 0.00 0.00 0.00 0.00 0.00 0.00 0.01 0.03 0.05 0.06 0.04 0.01 0.00 0.01 0.00 0.00 0.00 0.00 0.00 0.01 0.00 0.00 0.01 0.01 0.00 0.00 0.00 0.00 0.00 0.00 0.00 0.00
0.00 0.00 0.00 0.00 0.00 0.00 0.00 0.00 0.00 0.00 0.00 0.00 0.00 0.00 0.00 0.00 0.00 0.00 0.00 0.00 0.00 0.00 0.03 0.07 0.11 0.10 0.10 0.08 0.08 0.05 0.03 0.02 0.00 0.00 0.00 0.00 0.01 0.04 0.00 0.00 0.00 0.00 0.00 0.00 0.00 0.00 0.00 0.00 0.00
0.00 0.00 0.00 0.00 0.00 0.00 0.00 0.00 0.00 0.00 0.00 0.00 0.00 0.00 0.00 0.00 0.00 0.00 0.00 0.00 0.00 0.00 0.01 0.01 0.00 0.02 0.03 0.05 0.07 0.12 0.12 0.09 0.03 0.00 0.00 0.00 0.00 0.04 0.05 0.00 0.00 0.00 0.00 0.00 0.00 0.00 0.00 0.00 0.00
0.00 0.00 0.00 0.00 0.00 0.00 0.00 0.00 0.00 0.00 0.00 0.00 0.00 0.00 0.00 0.00 0.00 0.00 0.00 0.00 0.00 0.00 0.02 0.00 0.01 0.00 0.01 0.01 0.00 0.03 0.08 0.12 0.13 0.07 0.01 0.00 0.00 0.00 0.00 0.00 0.00 0.00 0.00 0.00 0.00 0.00 0.00 0.00 0.00
0.00 0.00 0.00 0.00 0.00 0.00 0.00 0.00 0.00 0.00 0.00 0.00 0.00 0.00 0.00 0.00 0.00 0.00 0.00 0.00 0.00 0.00 0.00 0.01 0.02 0.02 0.00 0.00 0.00 0.00 0.00 0.04 0.13 0.12 0.05 0.00 0.00 0.00 0.00 0.00 0.00 0.00 0.00 0.00 0.00 0.00 0.00 0.00 0.00
0.00 0.00 0.00 0.00 0.00 0.00 0.00 0.00 0.00 0.00 0.00 0.00 0.00 0.00 0.00 0.00 0.00 0.00 0.00 0.00 0.00 0.00 0.00 0.00 0.00 0.00 0.00 0.00 0.00 0.00 0.00 0.01 0.02 0.09 0.12 0.01 0.00 0.00 0.00 0.00 0.00 0.00 0.00 0.00 0.00 0.00 0.00 0.00 0.00
0.00 0.00 0.00 0.00 0.00 0.00 0.00 0.00 0.00 0.00 0.00 0.00 0.00 0.00 0.00 0.00 0.00 0.00 0.00 0.00 0.00 0.00 0.00 0.00 0.00 0.00 0.00 0.00 0.00 0.00 0.00 0.00 0.00 0.03 0.09 0.03 0.00 0.00 0.00 0.00 0.00 0.00 0.00 0.00 0.00 0.00 0.00 0.00 0.00
0.00 0.00 0.00 0.00 0.00 0.00 0.00 0.00 0.00 0.00 0.00 0.00 0.00 0.00 0.00 0.00 0.00 0.00 0.00 0.00 0.00 0.00 0.00 0.00 0.00 0.00 0.00 0.00 0.00 0.00 0.00 0.00 0.00 0.02 0.04 0.07 0.04 0.00 0.00 0.00 0.00 0.00 0.00 0.00 0.00 0.00 0.00 0.00 0.00
0.00 0.00 0.00 0.00 0.00 0.00 0.00 0.00 0.00 0.00 0.00 0.00 0.00 0.00 0.00 0.00 0.00 0.00 0.00 0.00 0.00 0.00 0.00 0.00 0.00 0.00 0.00 0.00 0.00 0.00 0.00 0.00 0.00 0.00 0.02 0.03 0.02 0.01 0.01 0.01 0.00 0.00 0.00 0.00 0.00 0.00 0.00 0.00 0.00
0.00 0.00 0.00 0.00 0.00 0.00 0.00 0.00 0.00 0.00 0.00 0.00 0.00 0.00 0.00 0.00 0.00 0.00 0.00 0.00 0.00 0.00 0.00 0.00 0.00 0.00 0.00 0.00 0.00 0.00 0.00 0.00 0.00 0.00 0.00 0.00 0.01 0.01 0.01 0.01 0.01 0.01 0.00 0.00 0.00 0.00 0.00 0.00 0.00
0.00 0.00 0.00 0.00 0.00 0.00 0.00 0.00 0.00 0.00 0.00 0.00 0.00 0.00 0.00 0.00 0.00 0.00 0.00 0.00 0.00 0.00 0.00 0.00 0.00 0.00 0.00 0.00 0.00 0.00 0.00 0.00 0.00 0.00 0.00 0.00 0.00 0.00 0.01 0.01 0.01 0.01 0.02 0.01 0.01 0.01 0.00 0.00 0.00
0.00 0.00 0.00 0.00 0.00 0.00 0.00 0.00 0.00 0.00 0.00 0.00 0.00 0.00 0.00 0.00 0.00 0.00 0.00 0.00 0.00 0.00 0.00 0.00 0.00 0.00 0.00 0.00 0.00 0.00 0.00 0.00 0.00 0.00 0.00 0.00 0.00 0.00 0.00 0.01 0.02 0.02 0.02 0.03 0.03 0.02 0.01 0.01 0.00
0.00 0.00 0.00 0.00 0.00 0.00 0.00 0.00 0.00 0.00 0.00 0.00 0.00 0.00 0.00 0.00 0.00 0.00 0.00 0.00 0.00 0.00 0.00 0.00 0.00 0.00 0.00 0.00 0.00 0.00 0.00 0.00 0.00 0.00 0.00 0.00 0.00 0.00 0.00 0.00 0.00 0.01 0.02 0.01 0.01 0.02 0.01 0.01 0.01
0.00 0.00 0.00 0.00 0.00 0.00 0.00 0.00 0.00 0.00 0.00 0.00 0.00 0.00 0.00 0.00 0.00 0.00 0.00 0.00 0.00 0.00 0.00 0.00 0.00 0.00 0.00 0.00 0.00 0.00 0.00 0.00 0.00 0.00 0.00 0.00 0.00 0.00 0.00 0.00 0.00 0.00 0.02 0.04 0.03 0.01 0.01 0.03 0.07
0.00 0.00 0.00 0.00 0.00 0.00 0.00 0.00 0.00 0.00 0.00 0.00 0.00 0.00 0.00 0.00 0.00 0.00 0.00 0.00 0.00 0.00 0.00 0.00 0.00 0.00 0.00 0.00 0.00 0.00 0.00 0.00 0.00 0.00 0.00 0.00 0.00 0.00 0.00 0.00 0.00 0.00 0.00 0.01 0.04 0.03 0.02 0.02 0.05
0.00 0.00 0.00 0.00 0.00 0.00 0.00 0.00 0.00 0.00 0.00 0.00 0.00 0.00 0.00 0.00 0.00 0.00 0.00 0.00 0.00 0.00 0.00 0.00 0.00 0.00 0.00 0.00 0.00 0.00 0.00 0.00 0.00 0.00 0.00 0.00 0.00 0.00 0.00 0.00 0.00 0.00 0.00 0.00 0.01 0.04 0.05 0.03 0.02
0.00 0.00 0.00 0.00 0.00 0.00 0.00 0.00 0.00 0.00 0.00 0.00 0.00 0.00 0.00 0.00 0.00 0.00 0.00 0.00 0.00 0.00 0.00 0.00 0.00 0.00 0.00 0.00 0.00 0.00 0.00 0.00 0.00 0.00 0.00 0.00 0.00 0.00 0.00 0.00 0.00 0.00 0.00 0.00 0.00 0.01 0.04 0.05 0.02
0.00 0.00 0.00 0.00 0.00 0.00 0.00 0.00 0.00 0.00 0.00 0.00 0.00 0.00 0.00 0.00 0.00 0.00 0.00 0.00 0.00 0.00 0.00 0.00 0.00 0.00 0.00 0.00 0.00 0.00 0.00 0.00 0.00 0.00 0.00 0.00 0.00 0.00 0.00 0.00 0.00 0.00 0.00 0.00 0.00 0.00 0.01 0.03 0.03
0.00 0.00 0.00 0.00 0.00 0.00 0.00 0.00 0.00 0.00 0.00 0.00 0.00 0.00 0.00 0.00 0.00 0.00 0.00 0.00 0.00 0.00 0.00 0.00 0.00 0.00 0.00 0.00 0.00 0.00 0.00 0.00 0.00 0.00 0.00 0.00 0.00 0.00 0.00 0.00 0.00 0.00 0.00 0.00 0.00 0.00 0.00 0.00 0.01
0.00 0.00 0.00 0.00 0.00 0.00 0.00 0.00 0.00 0.00 0.00 0.00 0.00 0.00 0.00 0.00 0.00 0.00 0.00 0.00 0.00 0.00 0.00 0.00 0.00 0.00 0.00 0.00 0.00 0.00 0.00 0.00 0.00 0.00 0.00 0.00 0.00 0.00 0.00 0.00 0.00 0.00 0.00 0.00 0.00 0.00 0.00 0.00 0.00
0.00 0.00 0.00 0.00 0.00 0.00 0.00 0.00 0.00 0.00 0.00 0.00 0.00 0.00 0.00 0.00 0.00 0.00 0.00 0.00 0.00 0.00 0.00 0.00 0.00 0.00 0.00 0.00 0.00 0.00 0.00 0.00 0.00 0.00 0.00 0.00 0.00 0.00 0.00 0.00 0.00 0.00 0.00 0.00 0.00 0.00 0.00 0.00 0.00
0.00 0.00 0.00 0.00 0.00 0.00 0.00 0.00 0.00 0.00 0.00 0.00 0.00 0.00 0.00 0.00 0.00 0.00 0.00 0.00 0.00 0.00 0.00 0.00 0.00 0.00 0.00 0.00 0.00 0.00 0.00 0.00 0.00 0.00 0.00 0.00 0.00 0.00 0.00 0.00 0.00 0.00 0.00 0.00 0.00 0.00 0.00 0.00 0.00
0.00 0.00 0.00 0.00 0.00 0.00 0.00 0.00 0.00 0.00 0.00 0.00 0.00 0.00 0.00 0.00 0.00 0.00 0.00 0.00 0.00 0.00 0.00 0.00 0.00 0.00 0.00 0.00 0.00 0.00 0.00 0.00 0.00 0.00 0.00 0.00 0.00 0.00 0.00 0.00 0.00 0.00 0.00 0.00 0.00 0.00 0.00 0.00 0.00
0.00 0.00 0.00 0.00 0.00 0.00 0.00 0.00 0.00 0.00 0.00 0.00 0.00 0.00 0.00 0.00 0.00 0.00 0.00 0.00 0.00 0.00 0.00 0.00 0.00 0.00 0.00 0.00 0.00 0.00 0.00 0.00 0.00 0.00 0.00 0.00 0.00 0.00 0.00 0.00 0.00 0.00 0.00 0.00 0.00 0.00 0.00 0.00 0.00
0.00 0.00 0.00 0.00 0.00 0.00 0.00 0.00 0.00 0.00 0.00 0.00 0.00 0.00 0.00 0.00 0.00 0.00 0.00 0.00 0.00 0.00 0.00 0.00 0.00 0.00 0.00 0.00 0.00 0.00 0.00 0.00 0.00 0.00 0.00 0.00 0.00 0.00 0.00 0.00 0.00 0.00 0.00 0.00 0.00 0.00 0.00 0.00 0.00
0.00 0.00 0.00 0.00 0.00 0.00 0.00 0.00 0.00 0.00 0.00 0.00 0.00 0.00 0.00 0.00 0.00 0.00 0.00 0.00 0.00 0.00 0.00 0.00 0.00 0.00 0.00 0.00 0.00 0.00 0.00 0.00 0.00 0.00 0.00 0.00 0.00 0.00 0.00 0.00 0.00 0.00 0.00 0.00 0.00 0.00 0.00 0.00 0.00
0.00 0.00 0.00 0.00 0.00 0.00 0.00 0.00 0.00 0.00 0.00 0.00 0.00 0.00 0.00 0.00 0.00 0.00 0.00 0.00 0.00 0.00 0.00 0.00 0.00 0.00 0.00 0.00 0.00 0.00 0.00 0.00 0.00 0.00 0.00 0.00 0.00 0.00 0.00 0.00 0.00 0.00 0.00 0.00 0.00 0.00 0.00 0.00 0.00
MSLP
1014.57 1014.53 1014.58 1015.02 1016.79 1017.71 1017.67 1017.78 1017.45 1017.22 1017.27 1017.35 1017.21 1017.19 1017.48 1018.14 1018.29 1018.90 1018.81 1018.87 1018.69 1018.33 1017.96 1017.80 1017.85 1018.07 1018.11 1018.28 1018.34 1018.38 1018.58 1018.68 1018.74 1018.84 1018.81 1018.79 1018.77 1018.77 1018.81 1018.97 1019.01 1018.98 1019.16 1019.29 1019.47 1019.52 1019.62 1019.80 1019.83
1014.68 1014.68 1015.13 1016.43 1017.41 1018.07 1018.12 1017.91 1017.67 1017.53 1017.79 1017.86 1017.81 1018.05 1018.20 1018.89 1018.99 1019.00 1018.91 1018.88 1018.55 1018.17 1017.84 1017.65 1017.68 1017.93 1018.09 1018.22 1018.36 1018.27 1018.55 1018.71 1018.83 1018.97 1018.97 1018.95 1018.91 1018.86 1018.95 1019.01 1019.10 1019.19 1019.35 1019.54 1019.73 1019.90 1019.98 1020.06 1020.14
1014.61 1014.93 1015.99 1017.26 1018.27 1018.26 1018.14 1017.98 1017.91 1018.02 1018.22 1018.09 1018.44 1018.91 1019.14 1019.50 1019.45 1019.45 1019.39 1018.94 1018.34 1017.97 1017.74 1017.50 1017.71 1017.89 1018.10 1018.27 1018.34 1018.22 1018.38 1018.62 1018.81 1018.99 1019.06 1019.06 1018.80 1018.89 1018.87 1019.03 1019.25 1019.37 1019.61 1019.80 1019.94 1020.14 1020.29 1020.41 1020.48
1014.95 1015.75 1017.61 1017.71 1018.50 1018.60 1018.41 1018.27 1018.17 1018.28 1018.36 1018.31 1018.72 1019.28 1019.79 1019.98 1019.85 1019.79 1019.41 1018.98 1018.54 1018.23 1017.78 1017.55 1017.76 1017.92 1018.15 1018.27 1018.22 1018.30 1018.36 1018.56 1018.72 1018.93 1019.09 1019.13 1019.00 1019.02 1019.08 1019.19 1019.37 1019.60 1019.79 1019.98 1020.06 1020.21 1020.48 1020.65 1020.72
1015.59 1016.73 1018.02 1018.71 1018.88 1018.83 1018.84 1018.78 1018.61 1018.57 1018.74 1018.87 1018.98 1019.70 1019.90 1019.99 1020.01 1019.85 1019.56 1019.19 1018.89 1018.47 1018.02 1017.87 1018.05 1018.12 1018.16 1018.37 1018.45 1018.50 1018.52 1018.70 1018.84 1018.94 1019.04 1019.10 1019.16 1019.16 1019.33 1019.47 1019.66 1019.82 1019.90 1020.06 1020.21 1020.35 1020.53 1020.72 1020.87
1016.61 1017.46 1018.58 1019.18 1019.24 1019.20 1019.24 1019.26 1018.97 1019.07 1019.22 1019.39 1019.50 1019.63 1020.10 1020.13 1019.98 1019.98 1019.77 1019.48 1019.14 1018.94 1018.62 1018.41 1018.43 1018.35 1018.40 1018.38 1018.45 1018.54 1018.70 1018.82 1018.84 1019.05 1019.09 1019.10 1019.21 1019.32 1019.54 1019.58 1019.69 1019.82 1019.97 1020.12 1020.32 1020.46 1020.62 1020.75 1020.85
1016.84 1018.04 1019.21 1019.50 1019.62 1019.56 1019.54 1019.46 1019.44 1019.50 1019.49 1019.67 1019.67 1019.87 1020.29 1020.10 1020.07 1019.99 1019.92 1019.74 1019.50 1019.35 1019.20 1018.96 1018.94 1018.82 1018.74 1018.73 1018.82 1018.74 1018.76 1018.84 1018.97 1018.98 1019.22 1019.31 1019.25 1019.30 1019.41 1019.59 1019.76 1019.82 1019.96 1020.08 1020.26 1020.44 1020.58 1020.74 1020.78
1017.43 1018.36 1019.65 1019.85 1019.82 1020.01 1019.82 1019.66 1019.80 1019.63 1019.81 1019.76 1019.88 1020.02 1020.34 1020.14 1020.14 1020.06 1020.03 1020.01 1019.88 1019.70 1019.54 1019.38 1019.22 1019.19 1019.13 1019.09 1019.08 1019.01 1019.02 1019.00 1019.06 1019.08 1019.18 1019.29 1019.43 1019.43 1019.47 1019.60 1019.70 1019.78 1019.88 1019.98 1020.16 1020.36 1020.52 1020.65 1020.75
1017.69 1018.91 1020.26 1020.12 1019.99 1020.13 1020.07 1019.99 1020.16 1020.06 1019.97 1020.10 1020.23 1020.24 1020.33 1020.32 1020.31 1020.34 1020.39 1020.30 1020.12 1020.05 1019.93 1019.82 1019.66 1019.58 1019.44 1019.36 1019.28 1019.12 1018.98 1019.02 1019.01 1019.02 1019.16 1019.22 1019.28 1019.38 1019.45 1019.48 1019.71 1019.78 1019.82 1019.91 1020.06 1020.22 1020.37 1020.59 1020.73
1018.57 1019.82 1020.57 1020.58 1020.38 1020.27 1020.26 1020.25 1020.50 1020.44 1020.39 1020.60 1020.62 1020.59 1020.64 1020.74 1020.92 1021.05 1021.08 1020.92 1020.70 1020.35 1020.13 1020.11 1020.08 1019.92 1019.74 1019.37 1019.37 1019.33 1019.19 1018.98 1018.84 1018.87 1019.04 1019.13 1019.26 1019.23 1019.32 1019.40 1019.56 1019.70 1019.80 1019.81 1019.89 1020.03 1020.22 1020.44 1020.43
1019.73 1020.60 1021.00 1021.11 1020.89 1020.70 1020.59 1020.66 1020.70 1020.70 1020.86 1020.81 1020.94 1021.06 1021.10 1021.28 1021.48 1021.57 1021.55 1021.55 1021.32 1020.94 1020.50 1020.24 1020.23 1020.12 1019.94 1019.72 1019.59 1019.46 1019.27 1019.09 1018.92 1018.79 1018.80 1018.92 1019.09 1019.16 1019.20 1019.23 1019.24 1019.30 1019.55 1019.49 1019.65 1019.76 1019.90 1020.05 1020.19
1020.74 1021.44 1021.40 1021.50 1021.32 1021.14 1021.18 1021.08 1021.08 1021.16 1021.28 1021.27 1021.44 1021.66 1021.78 1021.94 1021.98 1021.94 1021.75 1021.64 1021.55 1021.24 1020.90 1020.58 1020.42 1020.30 1020.12 1020.03 1019.78 1019.63 1019.53 1019.36 1019.09 1018.97 1018.90 1018.82 1018.78 1018.74 1018.85 1018.89 1019.00 1019.14 1019.16 1019.29 1019.30 1019.37 1019.50 1019.70 1019.88
1021.19 1021.94 1022.02 1022.11 1021.86 1021.84 1021.60 1021.72 1021.78 1021.70 1021.61 1021.61 1021.64 1021.89 1022.12 1022.14 1022.14 1022.07 1022.03 1021.79 1021.59 1021.35 1021.00 1020.66 1020.54 1020.25 1020.00 1019.91 1019.79 1019.67 1019.50 1019.43 1019.38 1019.24 1019.02 1018.82 1018.76 1018.60 1018.61 1018.43 1018.56 1018.74 1018.91 1018.96 1018.98 1019.13 1019.13 1019.23 1019.43
1021.96 1022.28 1022.69 1022.62 1022.48 1022.45 1022.22 1022.15 1021.96 1022.14 1022.00 1021.92 1022.02 1022.29 1022.50 1022.49 1022.52 1022.26 1022.05 1021.91 1021.76 1021.52 1021.18 1020.78 1020.39 1020.21 1019.94 1019.62 1019.58 1019.53 1019.47 1019.34 1019.28 1019.14 1019.05 1018.88 1018.58 1018.35 1018.38 1018.20 1018.17 1018.04 1018.18 1018.42 1018.50 1018.60 1018.79 1018.89 1018.85
1022.16 1022.87 1023.07 1023.33 1023.26 1023.11 1022.93 1022.48 1022.27 1022.35 1022.32 1022.38 1022.49 1022.52 1022.56 1022.70 1022.57 1022.49 1022.41 1022.20 1022.02 1021.76 1021.46 1020.95 1020.44 1020.16 1019.99 1019.75 1019.63 1019.50 1019.37 1019.26 1019.16 1019.00 1018.94 1018.87 1018.74 1018.55 1018.11 1017.92 1017.91 1017.73 1017.75 1017.72 1017.89 1018.01 1018.18 1018.46 1018.50
1022.93 1023.31 1024.04 1024.22 1023.82 1023.43 1023.18 1022.78 1022.45 1022.55 1022.60 1022.67 1022.86 1022.93 1022.98 1022.78 1022.63 1022.54 1022.50 1022.39 1022.07 1021.75 1021.46 1021.17 1020.82 1020.48 1020.12 1019.88 1019.75 1019.54 1019.36 1019.20 1018.93 1018.81 1018.75 1018.63 1018.57 1018.47 1018.32 1018.08 1017.66 1017.47 1017.32 1017.24 1017.37 1017.50 1017.52 1017.70 1017.94
1024.29 1024.52 1024.80 1024.77 1024.67 1024.45 1024.01 1023.30 1022.68 1022.70 1022.77 1022.77 1022.78 1022.80 1022.88 1022.68 1022.55 1022.53 1022.53 1022.35 1022.16 1021.91 1021.60 1021.21 1020.87 1020.58 1020.27 1019.85 1019.61 1019.34 1019.11 1018.89 1018.63 1018.55 1018.45 1018.29 1018.22 1018.11 1018.08 1017.88 1017.56 1017.31 1017.10 1017.03 1016.85 1016.99 1017.05 1017.06 1017.15
1024.72 1025.12 1025.30 1025.24 1025.42 1024.90 1024.58 1023.64 1022.98 1022.99 1023.07 1023.02 1023.03 1022.95 1022.95 1022.84 1022.59 1022.54 1022.38 1022.22 1022.11 1021.94 1021.69 1021.37 1020.98 1020.63 1020.33 1019.96 1019.46 1018.95 1018.64 1018.32 1018.27 1018.16 1018.05 1017.94 1017.85 1017.79 1017.81 1017.61 1017.35 1017.11 1016.83 1016.56 1016.53 1016.55 1016.49 1016.60 1016.53
1024.55 1025.02 1025.69 1025.87 1025.94 1025.78 1025.17 1024.22 1022.77 1022.71 1022.77 1022.88 1023.15 1023.16 1023.06 1023.00 1022.78 1022.65 1022.37 1022.13 1021.87 1021.69 1021.49 1021.16 1020.74 1020.36 1020.19 1019.78 1019.36 1018.84 1018.60 1018.37 1018.12 1017.95 1017.75 1017.54 1017.35 1017.29 1017.28 1017.20 1017.03 1016.84 1016.60 1016.27 1016.03 1015.94 1015.98 1015.83 1016.07
1025.16 1025.79 1026.42 1026.45 1026.39 1026.23 1025.76 1024.32 1022.49 1022.49 1022.49 1022.62 1022.92 1023.11 1023.07 1023.02 1022.77 1022.55 1022.25 1022.05 1021.83 1021.58 1021.24 1020.84 1020.58 1020.18 1019.89 1019.66 1019.35 1019.11 1018.67 1018.21 1017.96 1017.68 1017.32 1017.09 1016.89 1016.70 1016.52 1016.51 1016.44 1016.34 1016.18 1016.06 1015.88 1015.59 1015.35 1015.35 1015.34
1026.51 1026.66 1026.98 1027.27 1027.00 1027.06 1026.56 1024.70 1023.01 1022.41 1022.45 1022.65 1022.82 1022.92 1023.09 1023.04 1022.70 1022.29 1022.06 1021.89 1021.69 1021.40 1021.04 1020.66 1020.26 1019.95 1019.56 1019.22 1018.90 1018.55 1018.25 1017.92 1017.61 1017.29 1016.88 1016.47 1016.20 1015.96 1015.83 1015.71 1015.66 1015.64 1015.70 1015.49 1015.49 1015.39 1014.98 1014.61 1014.60
1027.14 1027.38 1027.65 1028.05 1028.18 1028.45 1027.66 1026.04 1023.75 1022.72 1022.58 1022.54 1022.39 1022.46 1022.54 1022.57 1022.39 1022.26 1021.89 1021.53 1021.36 1021.00 1020.74 1020.35 1019.86 1019.48 1019.14 1018.82 1018.46 1018.14 1017.77 1017.33 1016.96 1016.74 1016.26 1015.86 1015.57 1015.24 1015.00 1014.96 1014.88 1014.96 1014.97 1014.97 1014.85 1014.78 1014.67 1014.38 1013.99
1027.82 1028.02 1028.61 1029.33 1029.75 1029.81 1028.87 1027.95 1023.78 1022.97 1022.25 1021.96 1021.89 1021.95 1022.13 1022.20 1022.03 1021.75 1021.53 1021.26 1020.97 1020.59 1020.21 1019.92 1019.53 1019.16 1018.81 1018.52 1018.20 1017.74 1017.18 1016.83 1016.42 1016.18 1015.83 1015.39 1014.90 1014.71 1014.50 1014.37 1014.19 1014.21 1014.25 1014.22 1014.25 1014.33 1014.21 1014.08 1013.86
1028.03 1028.65 1029.42 1030.19 1030.70 1030.87 1030.11 1029.07 1025.02 1023.46 1022.67 1022.05 1021.68 1021.82 1021.88 1021.86 1021.61 1021.42 1021.16 1020.91 1020.57 1020.23 1019.87 1019.55 1019.14 1018.73 1018.47 1018.16 1017.73 1017.32 1016.86 1016.39 1015.97 1015.59 1015.10 1014.69 1014.42 1014.03 1013.92 1013.81 1013.60 1013.61 1013.56 1013.62 1013.68 1013.68 1013.73 1013.65 1013.48
1028.35 1029.16 1030.30 1031.27 1031.42 1031.16 1030.82 1029.80 1024.90 1023.02 1022.30 1021.91 1021.62 1021.61 1021.49 1021.45 1021.27 1020.99 1020.83 1020.68 1020.44 1020.16 1019.79 1019.33 1018.93 1018.30 1017.97 1017.70 1017.33 1017.10 1016.62 1016.17 1015.86 1015.32 1014.74 1014.20 1013.79 1013.61 1013.28 1013.03 1013.05 1012.95 1012.92 1012.99 1013.13 1013.18 1013.11 1013.12 1012.97
1029.10 1029.70 1030.54 1031.38 1031.98 1031.54 1030.48 1028.05 1023.54 1022.29 1021.68 1021.50 1021.38 1021.29 1021.20 1020.94 1020.80 1020.66 1020.66 1020.55 1020.28 1020.02 1019.85 1019.28 1018.82 1018.52 1017.99 1017.51 1017.13 1016.65 1016.17 1015.70 1015.35 1014.86 1014.40 1013.90 1013.38 1013.06 1012.89 1012.74 1012.69 1012.56 1012.53 1012.51 1012.61 1012.65 1012.64 1012.56 1012.29
1029.08 1029.54 1029.97 1030.78 1031.63 1031.47 1029.17 1026.48 1023.22 1021.78 1021.22 1020.98 1020.85 1020.95 1020.71 1020.58 1020.47 1020.36 1020.30 1020.28 1020.01 1019.86 1019.67 1019.33 1019.15 1018.38 1017.75 1017.11 1016.62 1016.13 1015.60 1015.13 1014.75 1014.28 1013.91 1013.47 1013.11 1012.83 1012.60 1012.44 1012.46 1012.32 1012.40 1012.39 1012.21 1012.10 1012.02 1012.03 1011.82
1028.29 1028.87 1029.45 1030.20 1030.98 1030.74 1028.49 1026.86 1023.81 1022.00 1021.16 1020.67 1020.57 1020.48 1020.33 1020.27 1020.10 1019.98 1019.97 1019.76 1019.72 1019.72 1019.64 1019.46 1018.87 1018.21 1017.46 1016.88 1016.29 1015.76 1015.31 1014.76 1014.37 1014.00 1013.46 1013.15 1012.88 1012.66 1012.35 1012.12 1012.06 1012.03 1012.02 1012.03 1012.06 1011.83 1011.76 1011.74 1011.59
1028.27 1028.35 1028.85 1029.49 1029.92 1029.82 1028.78 1025.05 1021.83 1021.10 1020.64 1020.44 1020.14 1020.20 1020.11 1019.92 1019.63 1019.52 1019.54 1019.46 1019.59 1019.65 1019.66 1019.32 1018.70 1018.11 1017.41 1016.72 1016.08 1015.62 1015.05 1014.53 1014.10 1013.70 1013.34 1012.97 1012.62 1012.33 1012.18 1012.09 1011.95 1011.78 1011.68 1011.65 1011.65 1011.42 1011.59 1011.48 1011.25
1027.63 1027.83 1028.23 1028.82 1029.16 1028.82 1028.05 1024.15 1020.64 1020.39 1020.26 1020.13 1019.89 1019.77 1019.53 1019.45 1019.27 1019.21 1019.13 1019.25 1019.56 1019.56 1019.34 1019.17 1018.74 1018.02 1017.28 1016.78 1016.20 1015.73 1015.26 1014.77 1014.28 1013.86 1013.45 1013.07 1012.66 1012.32 1012.11 1011.91 1011.82 1011.70 1011.53 1011.39 1011.28 1011.24 1011.23 1011.06 1010.96
Thickness
5729 5733 5735 5731 5707 5695 5689 5697 5706 5711 5716 5716 5722 5726 5722 5712 5717 5715 5726 5727 5729 5731 5733 5734 5734 5732 5732 5731 5730 5730 5729 5729 5729 5728 5729 5730 5731 5731 5730 5729 5727 5728 5726 5724 5723 5723 5722 5721 5720
5725 5729 5726 5708 5693 5687 5693 5697 5703 5710 5712 5713 5717 5717 5716 5709 5716 5719 5723 5727 5729 5732 5734 5735 5735 5733 5732 5731 5729 5730 5728 5727 5726 5725 5725 5726 5727 5728 5727 5727 5726 5725 5723 5721 5719 5718 5718 5718 5717
5722 5723 5712 5693 5675 5687 5694 5697 5703 5706 5706 5712 5710 5709 5709 5707 5713 5715 5720 5724 5729 5732 5734 5736 5734 5732 5731 5730 5729 5729 5728 5726 5725 5723 5723 5723 5725 5724 5725 5724 5723 5722 5720 5718 5717 5715 5714 5714 5713
5715 5712 5696 5687 5682 5685 5692 5698 5702 5704 5706 5709 5707 5704 5704 5708 5710 5713 5718 5722 5726 5729 5733 5734 5732 5731 5730 5729 5729 5728 5727 5726 5724 5722 5720 5720 5721 5721 5721 5721 5719 5718 5716 5715 5714 5712 5710 5709 5709
5705 5695 5678 5673 5678 5684 5689 5692 5697 5701 5700 5701 5703 5695 5698 5706 5708 5711 5714 5717 5721 5725 5729 5730 5729 5728 5728 5727 5726 5726 5725 5724 5722 5720 5719 5718 5717 5717 5716 5716 5715 5714 5713 5712 5710 5708 5706 5705 5705
5687 5685 5672 5669 5673 5680 5684 5684 5694 5694 5694 5695 5697 5696 5695 5701 5705 5706 5709 5712 5716 5718 5721 5723 5723 5725 5724 5724 5724 5723 5722 5720 5720 5719 5718 5717 5715 5714 5712 5711 5711 5711 5710 5709 5707 5705 5703 5702 5701
5680 5672 5662 5660 5667 5674 5678 5682 5686 5688 5690 5691 5694 5690 5692 5697 5700 5703 5704 5706 5709 5711 5713 5716 5717 5718 5719 5719 5718 5719 5718 5717 5716 5716 5715 5713 5714 5712 5711 5709 5707 5707 5706 5706 5704 5703 5701 5700 5699
5672 5668 5657 5658 5666 5668 5674 5679 5679 5685 5684 5689 5688 5687 5685 5693 5696 5699 5699 5700 5702 5705 5707 5710 5712 5712 5713 5713 5713 5713 5713 5714 5713 5712 5712 5712 5710 5710 5709 5708 5706 5704 5703 5703 5702 5700 5698 5697 5696
5668 5657 5650 5657 5663 5664 5668 5673 5673 5677 5681 5681 5681 5684 5686 5688 5690 5690 5691 5693 5697 5699 5700 5702 5703 5705 5706 5707 5708 5709 5710 5710 5710 5709 5709 5709 5708 5706 5705 5705 5704 5702 5701 5700 5698 5697 5696 5694 5692
5654 5646 5649 5649 5653 5659 5662 5667 5664 5672 5673 5672 5674 5677 5679 5680 5679 5678 5680 5684 5688 5691 5694 5695 5695 5697 5698 5701 5702 5702 5703 5705 5706 5705 5704 5703 5703 5703 5702 5702 5701 5699 5698 5698 5697 5695 5693 5691 5689
5640 5640 5639 5642 5648 5654 5658 5660 5660 5665 5666 5668 5669 5669 5671 5671 5669 5670 5673 5675 5678 5682 5686 5688 5689 5690 5692 5693 5694 5695 5696 5699 5700 5700 5700 5699 5698 5698 5698 5698 5697 5697 5695 5695 5694 5693 5691 5689 5687
5631 5629 5635 5638 5642 5649 5651 5654 5656 5657 5660 5660 5660 5661 5662 5662 5664 5665 5669 5671 5672 5674 5678 5681 5682 5683 5684 5685 5686 5688 5689 5690 5692 5693 5693 5693 5693 5694 5694 5694 5693 5692 5692 5691 5691 5690 5690 5687 5685
5624 5622 5625 5628 5634 5637 5645 5644 5647 5651 5653 5655 5657 5657 5656 5658 5660 5662 5664 5666 5667 5670 5673 5676 5677 5679 5682 5682 5682 5682 5683 5683 5683 5684 5685 5686 5687 5689 5689 5690 5689 5688 5687 5687 5686 5686 5686 5685 5684
5613 5615 5616 5620 5626 5627 5636 5638 5643 5643 5645 5650 5651 5650 5650 5652 5653 5656 5659 5660 5662 5663 5666 5669 5672 5674 5676 5678 5678 5677 5677 5677 5677 5676 5676 5676 5678 5680 5682 5684 5685 5686 5685 5682 5682 5682 5682 5682 5682
5609 5609 5610 5608 5611 5620 5617 5636 5637 5636 5639 5641 5642 5643 5644 5645 5647 5649 5649 5652 5653 5655 5656 5660 5664 5666 5668 5669 5669 5669 5670 5669 5669 5669 5669 5669 5669 5670 5672 5675 5677 5679 5680 5680 5679 5678 5678 5678 5678
5600 5598 5603 5600 5602 5613 5619 5626 5630 5627 5630 5634 5634 5635 5633 5637 5639 5642 5642 5643 5646 5648 5649 5651 5653 5655 5657 5658 5659 5659 5660 5660 5661 5661 5660 5660 5660 5661 5662 5665 5668 5669 5672 5675 5674 5674 5674 5675 5674
5573 5585 5591 5595 5588 5592 5606 5618 5623 5620 5623 5626 5629 5627 5627 5631 5634 5634 5633 5634 5636 5638 5640 5642 5644 5645 5646 5648 5649 5650 5650 5650 5651 5650 5650 5652 5652 5652 5653 5655 5658 5659 5662 5665 5668 5668 5668 5669 5670
5578 5577 5581 5588 5582 5582 5595 5606 5613 5613 5615 5617 5616 5617 5619 5621 5625 5623 5624 5625 5627 5628 5630 5631 5633 5635 5636 5637 5640 5643 5643 5643 5641 5640 5640 5640 5641 5642 5642 5644 5647 5650 5654 5657 5659 5660 5662 5662 5665
5571 5572 5572 5570 5571 5574 5582 5584 5610 5610 5610 5613 5608 5609 5610 5610 5612 5612 5616 5617 5618 5619 5620 5622 5624 5626 5625 5628 5630 5633 5633 5632 5631 5629 5628 5628 5629 5630 5631 5633 5636 5638 5643 5648 5651 5654 5654 5657 5658
5567 5565 5560 5562 5563 5568 5564 5588 5612 5604 5607 5606 5604 5604 5604 5603 5604 5605 5606 5607 5608 5608 5610 5612 5613 5614 5614 5615 5615 5616 5618 5619 5617 5616 5616 5616 5617 5617 5620 5622 5625 5628 5632 5636 5640 5643 5646 5648 5652
5540 5550 5553 5561 5553 5548 5548 5584 5602 5603 5599 5596 5595 5594 5591 5592 5595 5597 5597 5597 5597 5598 5600 5603 5604 5605 5606 5606 5607 5606 5605 5605 5604 5603 5602 5600 5601 5604 5606 5609 5613 5617 5619 5626 5628 5632 5636 5641 5644
5547 5540 5543 5541 5538 5554 5539 5572 5589 5591 5590 5590 5590 5589 5587 5586 5586 5585 5588 5590 5590 5592 5592 5594 5596 5597 5598 5596 5596 5595 5594 5592 5589 5586 5587 5585 5584 5587 5592 5596 5600 5604 5608 5614 5618 5622 5626 5630 5635
5528 5528 5525 5514 5495 5503 5530 5526 5575 5574 5592 5590 5586 5585 5582 5580 5579 5582 5584 5584 5585 5586 5586 5586 5587 5587 5586 5585 5583 5584 5581 5576 5573 5569 5567 5567 5567 5567 5573 5580 5586 5592 5597 5603 5607 5610 5614 5618 5623
5518 5516 5505 5488 5479 5502 5500 5512 5550 5572 5580 5582 5580 5577 5576 5575 5576 5577 5578 5578 5578 5578 5579 5579 5579 5578 5579 5579 5578 5575 5570 5564 5558 5551 5551 5551 5551 5553 5556 5561 5569 5575 5584 5590 5594 5599 5603 5607 5612
5506 5498 5486 5498 5490 5522 5453 5482 5554 5565 5566 5570 5576 5573 5572 5570 5571 5572 5573 5571 5571 5570 5570 5572 5573 5574 5574 5574 5574 5569 5561 5552 5541 5536 5533 5533 5536 5538 5542 5549 5554 5562 5568 5576 5582 5587 5593 5597 5601
5488 5483 5479 5499 5480 5489 5474 5506 5563 5560 5563 5562 5562 5562 5563 5567 5567 5566 5565 5564 5565 5565 5563 5566 5566 5565 5569 5571 5570 5566 5559 5549 5538 5531 5525 5524 5525 5527 5530 5534 5539 5547 5554 5562 5567 5573 5579 5585 5592
5493 5482 5489 5468 5469 5478 5487 5514 5549 5556 5559 5560 5563 5561 5563 5564 5564 5564 5564 5563 5564 5562 5559 5559 5558 5561 5566 5570 5569 5566 5559 5552 5543 5537 5530 5527 5525 5523 5522 5523 5527 5534 5540 5547 5554 5560 5567 5572 5579
5502 5496 5492 5466 5465 5482 5496 5481 5527 5548 5562 5566 5563 5562 5563 5562 5564 5566 5565 5566 5562 5559 5555 5553 5556 5559 5564 5566 5567 5565 5560 5554 5547 5539 5534 5529 5525 5522 5522 5523 5523 5527 5532 5537 5542 5549 5553 5558 5566
5499 5498 5497 5486 5480 5475 5483 5517 5527 5537 5554 5560 5562 5560 5561 5563 5567 5568 5566 5564 5561 5558 5553 5551 5552 5556 5560 5565 5566 5563 5562 5558 5553 5547 5541 5534 5528 5525 5522 5522 5524 5527 5532 5536 5539 5543 5544 5549 5554
5494 5489 5483 5474 5473 5476 5489 5510 5550 5547 5550 5552 5556 5561 5565 5564 5564 5565 5567 5565 5560 5558 5556 5552 5553 5557 5562 5564 5564 5563 5561 5558 5555 5551 5547 5542 5538 5534 5529 5526 5524 5526 5529 5532 5536 5538 5541 5545 5549